Location: ???????????
(55.5758°N, 38.4970°E)
Time: 17:23:42
(UTC+00:00)

Lacrosse 4 Rocket - Pass Details

Date: 15 November 2025
Orbit: 513 x 566 km, 68.0° (Epoch: 14 December)

Event Time Altitude Azimuth Distance (km) Brightness Sun altitude
Exits shadow 01:12:54 16° 37° (NE) 1,447 3.9 -31.7°
Drops below altitude 10° 01:14:35 10° 61° (ENE) 1,785 4.7 -31.4°
Sets 01:17:21 0° 81° (E) 2,662 6.0 -31.1°
